Lexington Weather

Lexington, Massachusetts, USA

78°F
7/25/2024 12:58pm 
  • Lexington Conditions: Mostly cloudy
  • Temperature: 78.3°F / 25.7°CWarmer 0.6°F than last hour.
  • Dew Point: 72.7°FIncreased 0.2°Fsince last hour.
  • Relative Humidity: 83%Decreased 1.0% since last hour.
  • Wind: Wind from WSW WSW 1 mph, 10-min avg: 1 mph, gust: 4 mph
  • Barometer: 29.93 in Steady
  • Visibility: 10 miles
  • Rain Today: 0.00 in
  •   

Regional Weather Roundup
for Boston, MA

        
000
ASUS41 KBOX 221810
RWRBOX

REGIONAL WEATHER ROUNDUP
NATIONAL WEATHER SERVICE BOSTON/NORTON MA
200 PM EDT MON JUL 22 2024

NOTE:  "FAIR" INDICATES FEW OR NO CLOUDS BELOW 12,000 FEET WITH NO 
SIGNIFICANT WEATHER AND/OR OBSTRUCTIONS TO VISIBILITY.

MAZALL-221900-
EASTERN MASSACHUSETTS
  
CITY           SKY/WX    TMP DP  RH WIND       PRES   REMARKS
BOSTON         CLOUDY    72  65  78 E9        30.08F                  
6HR MIN TEMP:  70; 6HR MAX TEMP:  74;                                

BEVERLY        FAIR      80  60  50 S12       30.07F                  
LAWRENCE       PTSUNNY   83  60  45 CALM      30.07F                  
BEDFORD        FAIR      86  62  44 SW9G16    30.05F                  
NORWOOD        PTSUNNY   85  70  60 CALM      30.06F                  
MARSHFIELD     FAIR      77  68  73 VRB5      30.07F                  
PLYMOUTH       PTSUNNY   85  65  51 S8        30.07S                  
TAUNTON        FAIR      86  66  51 SW10      30.07S                  
NEW BEDFORD    FAIR      85  69  58 S10       30.07F                  
$$

MAZALL-221900-
CAPE COD AND THE ISLANDS
  
CITY           SKY/WX    TMP DP  RH WIND       PRES   REMARKS
FALMOUTH       MOSUNNY   82  70  65 W13       30.09S                  
HYANNIS        FAIR      82  70  66 SW12      30.07F                  
CHATHAM        FAIR      83  72  69 VRB5G17   30.10S                  
PROVINCETOWN   FAIR      83  72  69 S10       30.08F                  
NANTUCKET        N/A     77  73  87 SW13        N/A                   
MARTHAS VNYRD  FAIR      80  70  71 SW14      30.10S                  
$$
 
MAZALL-221900-
CENTRAL AND WESTERN MASSACHUSETTS
  
CITY           SKY/WX    TMP DP  RH WIND       PRES   REMARKS
WORCESTER      PTSUNNY   81  62  52 SW8       30.11S                  
6HR MIN TEMP:  71; 6HR MAX TEMP:  84;                                

FITCHBURG      FAIR      84  63  49 S13       30.07F                  
ORANGE           N/A     83  63  50 S10       30.08F                  
SPRINGFIELD    PTSUNNY   84  64  50 S8        30.03F                  
WESTFIELD      FAIR      83  67  58 S8        30.06F                  
NORTH ADAMS    FAIR      82  65  56 CALM      30.05F                  
PITTSFIELD     FAIR      81  62  52 SW8       30.08F                  
$$
 
RIZALL-221900-
RHODE ISLAND
  
CITY           SKY/WX    TMP DP  RH WIND       PRES   REMARKS
PROVIDENCE     CLOUDY    82  71  69 SE13      30.08F                  
6HR MIN TEMP:  74; 6HR MAX TEMP:  83;                                

NEWPORT        FAIR      77  69  76 SW8       30.09F                  
BLOCK ISLAND   FAIR      79  72  79 SW15        N/A                   
SMITHFIELD     FAIR      82  69  64 VRB6      30.09F                  
WESTERLY       FAIR      80  70  71 SW13G21   30.09F                  
$$
 
CTZALL-221900-
CONNECTICUT
  
CITY           SKY/WX    TMP DP  RH WIND       PRES   REMARKS
BRADLEY INTL   CLOUDY    85  68  56 S10       30.06F                  
6HR MIN TEMP:  72; 6HR MAX TEMP:  86;                                

HARTFORD       FAIR      82  70  66 SE5       30.05F                  
PLAINVILLE     MOCLDY    83  70  65 S8        30.06F                  
BRIDGEPORT     FAIR      80  71  74 SE5       30.06F                  
DANBURY        FAIR      82  70  66 S7        30.08F                  
GROTON         FAIR      76  70  82 S9        30.08S                  
NEW HAVEN      PTSUNNY   83  73  72 SE6       30.07F                  
CHESTER        PTSUNNY   81  73  78 S8        30.09F                  
MERIDEN        FAIR      83  67  58 MISG      30.06F                  
WILLIMANTIC    FAIR      82  68  62 S9        30.08F                  
OXFORD         FAIR      80  70  71 S6        30.10F                  
$$

MEZ002-015-021-024-NHZ003-005-008-011-012-014-VTZ005-008-221900-
NORTHERN NEW ENGLAND
  
CITY           SKY/WX    TMP DP  RH WIND       PRES   REMARKS
PORTLAND ME    PTSUNNY   77  60  55 S12G17    30.06F                  
6HR MIN TEMP:  68; 6HR MAX TEMP:  79;                                

BANGOR ME      FAIR      78  52  40 SW6       30.04F                  
CONCORD NH     FAIR      84  56  38 VRB3      30.05F                  
MANCHESTER NH  PTSUNNY   86  59  39 S3        30.04F                  
NASHUA NH      FAIR      85  63  47 CALM      30.06F                  
PORTSMOUTH NH  PTSUNNY   82  61  48 SE12      30.06S                  
JAFFREY NH     PTSUNNY   83  61  47 S7        30.09F                  
KEENE NH       PTSUNNY   83  61  47 VRB6      30.05F                  
BURLINGTON VT  PTSUNNY   83  58  42 S7        30.02F                  
MT. WASHINGTON PTSUNNY   52  46  82 W28G33      N/A                   
$$

NYZ052-076-221900-
EASTERN NEW YORK
  
CITY           SKY/WX    TMP DP  RH WIND       PRES   REMARKS
ALBANY         PTSUNNY   84  63  49 SE3       30.03F                  
6HR MIN TEMP:  68; 6HR MAX TEMP:  85;                                

NEW YORK CITY  PTSUNNY   82  68  62 S16       30.04F                  
6HR MIN TEMP:  74; 6HR MAX TEMP:  84;                                

$$
 
ANZALL-221900-
MARINE OBSERVATIONS
  
STATION/POSITION TIME  TEMP    WIND        PRES    VSBY  WAVE
                       AIR SEA DIR/SP/G                  HT/PER
                 (UTC) (F)     (DEG/KT/KT) (MB)    (MI)  (FT/S)
BOSTON BUOY      1750   67 65  100/  6/  8 1018.5F         1/10
BUZZARDS BAY     1700   72     230/  9/ 10 1019.5S
NANTUCKET SOUND  1750   76 77  220/ 12/ 14 1018.4F         1/ 5
MASS BAY-STELLWA 1604   69 62  100/  2/  4 1019.3F  1 7/8  1/ 8
ISLE OF SHOALS   1700   68     150/ 11/ 11 1018.1F
S OF BLOCK IS    1756      74                N/A           3/ 9
$$

......................KEY.........................
  SKY/WX - SKY CONDITION/PRESENT WEATHER
  TMP    - TEMPERATURE IN FAHRENHEIT
  DWPT   - DEWPOINT IN FAHRENHEIT
  RH     - RELATIVE HUMIDITY IN PERCENT
  WIND   - DIRECTION AND SPEED IN MPH
  PRES   - MEAN SEA LEVEL PRESSURE IN INCHES OF HG
  WCI    - WIND CHILL INDEX
  VSB    - VISIBILITY IN MILES
  HX     - HEAT INDEX
  TC     - TEMPERATURE IN CELSIUS
  VRB    - VARIABLE WIND DIRECTION
  N/A    - NOT AVAILABLE
  
      

Other recent Regional Weather Roundups

Thu Jul 25, 12:10pm EDT

Thu Jul 25, 11:10am EDT

Thu Jul 25, 10:10am EDT

Thu Jul 25, 9:10am EDT

Thu Jul 25, 8:10am EDT

Thu Jul 25, 7:10am EDT

Thu Jul 25, 6:10am EDT

Thu Jul 25, 5:10am EDT

Thu Jul 25, 4:10am EDT

Thu Jul 25, 3:10am EDT

Thu Jul 25, 2:10am EDT

Thu Jul 25, 1:10am EDT

Thu Jul 25, 12:10am EDT

Wed Jul 24, 11:10pm EDT

Wed Jul 24, 10:10pm EDT

Wed Jul 24, 9:10pm EDT

Wed Jul 24, 8:10pm EDT

Wed Jul 24, 7:10pm EDT

Wed Jul 24, 6:10pm EDT

Wed Jul 24, 5:10pm EDT

Wed Jul 24, 4:10pm EDT

Wed Jul 24, 3:10pm EDT

Wed Jul 24, 2:10pm EDT

Wed Jul 24, 1:10pm EDT

Wed Jul 24, 12:10pm EDT

Wed Jul 24, 11:10am EDT

Wed Jul 24, 10:10am EDT

Wed Jul 24, 9:10am EDT

Wed Jul 24, 8:10am EDT

Wed Jul 24, 7:10am EDT

Wed Jul 24, 6:10am EDT

Wed Jul 24, 5:10am EDT

Wed Jul 24, 4:10am EDT

Wed Jul 24, 3:10am EDT

Wed Jul 24, 2:10am EDT

Wed Jul 24, 1:10am EDT

Wed Jul 24, 12:10am EDT

Tue Jul 23, 11:10pm EDT

Tue Jul 23, 10:10pm EDT

Tue Jul 23, 9:10pm EDT

Tue Jul 23, 8:10pm EDT

Tue Jul 23, 7:10pm EDT

Tue Jul 23, 6:10pm EDT

Tue Jul 23, 5:10pm EDT

Tue Jul 23, 4:10pm EDT

Tue Jul 23, 3:10pm EDT

Tue Jul 23, 2:10pm EDT

Tue Jul 23, 1:10pm EDT

Tue Jul 23, 12:10pm EDT

Tue Jul 23, 11:10am EDT

Tue Jul 23, 10:10am EDT

Tue Jul 23, 10:10am EDT

Tue Jul 23, 9:10am EDT

Tue Jul 23, 8:10am EDT

Tue Jul 23, 7:10am EDT

Tue Jul 23, 6:10am EDT

Tue Jul 23, 5:10am EDT

Tue Jul 23, 4:10am EDT

Tue Jul 23, 3:10am EDT

Tue Jul 23, 2:10am EDT

Tue Jul 23, 1:10am EDT

Tue Jul 23, 12:10am EDT

Mon Jul 22, 11:10pm EDT

Mon Jul 22, 10:10pm EDT

Mon Jul 22, 9:10pm EDT

Mon Jul 22, 8:10pm EDT

Mon Jul 22, 7:10pm EDT

Mon Jul 22, 6:10pm EDT

Mon Jul 22, 5:10pm EDT

Mon Jul 22, 4:10pm EDT

Mon Jul 22, 3:10pm EDT

Mon Jul 22, 1:10pm EDT

Mon Jul 22, 12:10pm EDT

Mon Jul 22, 11:10am EDT

Mon Jul 22, 10:10am EDT

Mon Jul 22, 9:10am EDT

Mon Jul 22, 8:10am EDT

Mon Jul 22, 7:10am EDT

Mon Jul 22, 6:10am EDT

Mon Jul 22, 5:10am EDT

Mon Jul 22, 4:10am EDT

Mon Jul 22, 3:10am EDT

Mon Jul 22, 2:10am EDT

Mon Jul 22, 1:10am EDT

Mon Jul 22, 12:10am EDT

Sun Jul 21, 11:10pm EDT

Sun Jul 21, 10:10pm EDT

Sun Jul 21, 9:10pm EDT

Sun Jul 21, 8:10pm EDT

Sun Jul 21, 7:10pm EDT

Sun Jul 21, 6:10pm EDT

Sun Jul 21, 5:10pm EDT

Sun Jul 21, 4:10pm EDT

Sun Jul 21, 3:10pm EDT

Sun Jul 21, 2:10pm EDT

Sun Jul 21, 1:10pm EDT

Sun Jul 21, 12:10pm EDT

Sun Jul 21, 11:10am EDT

Sun Jul 21, 10:10am EDT

Sun Jul 21, 9:10am EDT

Sun Jul 21, 8:10am EDT

Sun Jul 21, 7:10am EDT

Sun Jul 21, 6:10am EDT

Sun Jul 21, 5:10am EDT

Sun Jul 21, 4:10am EDT

Sun Jul 21, 3:10am EDT

Sun Jul 21, 2:10am EDT

Sun Jul 21, 1:10am EDT

Sun Jul 21, 12:10am EDT

Sat Jul 20, 11:10pm EDT

Sat Jul 20, 10:10pm EDT

Sat Jul 20, 9:10pm EDT

Sat Jul 20, 8:10pm EDT

Sat Jul 20, 7:10pm EDT

Sat Jul 20, 6:10pm EDT

Sat Jul 20, 5:10pm EDT

Sat Jul 20, 4:10pm EDT

Sat Jul 20, 3:10pm EDT

Sat Jul 20, 2:10pm EDT

Sat Jul 20, 1:10pm EDT

Sat Jul 20, 12:10pm EDT

Sat Jul 20, 11:10am EDT

Sat Jul 20, 10:10am EDT

Sat Jul 20, 9:10am EDT

Sat Jul 20, 8:10am EDT

Sat Jul 20, 7:10am EDT

Sat Jul 20, 6:10am EDT

Sat Jul 20, 5:10am EDT

Sat Jul 20, 4:10am EDT

Sat Jul 20, 3:10am EDT

Sat Jul 20, 2:10am EDT

Sat Jul 20, 1:10am EDT

Sat Jul 20, 12:10am EDT

Fri Jul 19, 11:10pm EDT

Fri Jul 19, 10:10pm EDT

Fri Jul 19, 9:10pm EDT

Fri Jul 19, 8:10pm EDT

Fri Jul 19, 7:10pm EDT

Fri Jul 19, 6:10pm EDT

Fri Jul 19, 5:10pm EDT

Fri Jul 19, 4:10pm EDT

Fri Jul 19, 3:10pm EDT

Fri Jul 19, 2:10pm EDT

Fri Jul 19, 1:10pm EDT

Fri Jul 19, 12:10pm EDT

Fri Jul 19, 11:10am EDT

Fri Jul 19, 10:10am EDT

Fri Jul 19, 9:10am EDT

Fri Jul 19, 8:10am EDT

Fri Jul 19, 7:10am EDT

Fri Jul 19, 6:10am EDT

Fri Jul 19, 5:10am EDT

Fri Jul 19, 4:10am EDT

Fri Jul 19, 3:10am EDT

Fri Jul 19, 2:10am EDT

Fri Jul 19, 1:10am EDT

Fri Jul 19, 12:10am EDT

Thu Jul 18, 11:10pm EDT

Thu Jul 18, 10:10pm EDT

Thu Jul 18, 9:10pm EDT

Thu Jul 18, 8:10pm EDT

Thu Jul 18, 7:10pm EDT

Thu Jul 18, 6:10pm EDT

Thu Jul 18, 5:10pm EDT

Thu Jul 18, 4:10pm EDT

Thu Jul 18, 3:10pm EDT

Thu Jul 18, 2:10pm EDT

Thu Jul 18, 1:10pm EDT